Weather History for Dublin, VA

Change the Weather History Date:

Sunday, March 31, 2013

  Actual Average (KBCB) Record (KBCB)
Temperature  
Mean Temperature 48 °F 46 °F  
Max Temperature 57 °F 58 °F 85 °F (1985)
Min Temperature 39 °F 34 °F 16 °F (1964)
Degree Days  
Heating Degree Days 17 19  
Month to date heating degree days 727  
Since 1 July heating degree days 4775  
Cooling Degree Days 0 0  
Month to date cooling degree days 0  
Year to date cooling degree days 0  
Moisture  
Dew Point 43 °F    
Average Humidity 84    
Maximum Humidity 100    
Minimum Humidity 53    
Precipitation  
Precipitation 0.08 in 0.13 in 1.38 in (1958)
Month to date precipitation 3.64  
Year to date precipitation 9.53  
Snow  
Snow 0.00 in - - ()
Month to date snowfall  
Since 1 July snowfall  
Snow Depth -    
Sea Level Pressure  
Sea Level Pressure 29.91 in    
Wind  
Wind Speed 2 mph (WSW)    
Max Wind Speed 15 mph    
Max Gust Speed 22 mph    
Visibility 8 miles    
Events Rain    
T = Trace of Precipitation, MM = Missing Value Source: NWS Daily Summary

Daily Weather History Graph

Daily Weather History Graph

Search for Another Location

Airport:

Trip Planner

Search our weather history database for the weather conditions in past years. The results will help you decide how hot, cold, wet, or windy it might be!

Date:

Astronomy

Mar. 31, 2013 Rise Set
Actual Time 7:09 AM EDT 7:44 PM EDT
Civil Twilight 6:43 AM EDT 8:10 PM EDT
Nautical Twilight 6:12 AM EDT 8:41 PM EDT
Astronomical Twilight 5:41 AM EDT 9:13 PM EDT
Moon No Moon Rise 10:01 AM EDT (3/31)
Length of Visible Light 13h 27m
Length of Day
12h 35m
Waning Gibbous, 78% of the Moon is Illuminated
Mar 31
Waning Gibbous
Apr 3
Last Quarter
Apr 10
New
Apr 18
First Quarter
Apr 25
Full

Hourly Weather History & Observations

Time (EDT) Temp. Windchill Dew Point Humidity Pressure Visibility Wind Dir Wind Speed Gust Speed Precip Events Conditions
12:15 AM 42.8 °F - 33.8 °F 70% 30.07 in 10.0 mi Calm Calm - N/A   Clear
12:35 AM 44.6 °F - 30.2 °F 57% 30.07 in 10.0 mi Calm Calm - N/A   Clear
12:55 AM 44.6 °F - 32.0 °F 61% 30.06 in 10.0 mi Calm Calm - N/A   Clear
1:15 AM 44.6 °F - 30.2 °F 57% 30.05 in 10.0 mi Calm Calm - N/A   Clear
1:35 AM 44.6 °F - 30.2 °F 57% 30.04 in 10.0 mi Calm Calm - N/A   Clear
1:55 AM 44.6 °F - 28.4 °F 53% 30.03 in 10.0 mi Calm Calm - N/A   Clear
2:15 AM 44.6 °F - 30.2 °F 57% 30.03 in 10.0 mi Calm Calm - N/A   Clear
2:35 AM 41.0 °F - 33.8 °F 76% 30.02 in 10.0 mi Calm Calm - N/A   Clear
2:55 AM 42.8 °F - 32.0 °F 66% 30.01 in 10.0 mi Calm Calm - N/A   Scattered Clouds
3:15 AM 44.6 °F - 33.8 °F 66% 30.01 in 10.0 mi Calm Calm - N/A   Scattered Clouds
3:35 AM 42.8 °F - 33.8 °F 70% 30.00 in 10.0 mi Calm Calm - N/A   Clear
3:55 AM 42.8 °F - 35.6 °F 76% 30.00 in 10.0 mi Calm Calm - N/A   Scattered Clouds
4:15 AM 46.4 °F - 37.4 °F 71% 30.00 in 10.0 mi Calm Calm - N/A Rain Rain
4:35 AM 42.8 °F - 37.4 °F 81% 29.99 in 10.0 mi Calm Calm - N/A Rain Light Rain
4:55 AM 42.8 °F - 39.2 °F 87% 29.98 in 7.0 mi Calm Calm - 0.01 in Rain Light Rain
5:15 AM 41.0 °F 39.0 °F 39.2 °F 93% 29.97 in 5.0 mi WNW 3.5 mph - 0.02 in Rain Rain
5:35 AM 39.2 °F - 39.2 °F 100% 29.97 in 4.0 mi Calm Calm - 0.02 in Rain Light Rain
5:55 AM 41.0 °F - 41.0 °F 100% 29.96 in 3.0 mi Calm Calm - 0.03 in   Overcast
6:15 AM 41.0 °F - 41.0 °F 100% 29.95 in 3.0 mi Calm Calm - 0.03 in Rain Rain
6:35 AM 41.0 °F - 41.0 °F 100% 29.94 in 7.0 mi Calm Calm - 0.01 in Rain Light Rain
6:55 AM 39.2 °F - 39.2 °F 100% 29.93 in 4.0 mi Calm Calm - N/A Rain Light Rain
7:15 AM 39.2 °F - 39.2 °F 100% 29.93 in 3.0 mi Calm Calm - N/A   Drizzle
7:35 AM 41.0 °F - 41.0 °F 100% 29.93 in 2.5 mi Calm Calm - N/A Rain Light Rain
7:55 AM 41.0 °F - 41.0 °F 100% 29.93 in 1.8 mi Calm Calm - N/A Rain Light Rain
8:15 AM 42.8 °F - 42.8 °F 100% 29.92 in 1.8 mi Calm Calm - 0.01 in Rain Light Rain
8:35 AM 42.8 °F - 42.8 °F 100% 29.92 in 1.5 mi Calm Calm - N/A Rain Rain
8:55 AM 42.8 °F - 42.8 °F 100% 29.91 in 1.2 mi Calm Calm - N/A Rain Rain
9:15 AM 44.6 °F - 44.6 °F 100% 29.91 in 1.0 mi Calm Calm - N/A Rain Light Rain
9:35 AM 44.6 °F - 44.6 °F 100% 29.90 in 1.0 mi Calm Calm - N/A Rain Rain
9:55 AM 44.6 °F - 44.6 °F 100% 29.89 in 1.0 mi Calm Calm - N/A Rain Light Rain
10:15 AM 44.6 °F - 44.6 °F 100% 29.90 in 1.5 mi Calm Calm - N/A Rain Rain
10:35 AM 46.4 °F - 46.4 °F 100% 29.89 in 1.5 mi Calm Calm - N/A Rain Rain
10:55 AM 46.4 °F - 46.4 °F 100% 29.89 in 2.5 mi Calm Calm - N/A Rain Light Rain
11:15 AM 46.4 °F - 46.4 °F 100% 29.89 in 3.0 mi Calm Calm - N/A   Overcast
11:35 AM 46.4 °F - 46.4 °F 100% 29.89 in 2.5 mi Calm Calm - N/A   Overcast
11:55 AM 46.4 °F - 46.4 °F 100% 29.88 in 2.0 mi Calm Calm - N/A   Overcast
12:15 PM 48.2 °F - 48.2 °F 100% 29.87 in 2.0 mi Calm Calm - N/A   Overcast
12:35 PM 48.2 °F - 48.2 °F 100% 29.87 in 4.0 mi Calm Calm - N/A   Overcast
12:55 PM 51.8 °F - 51.8 °F 100% 29.86 in 10.0 mi SW 8.1 mph - N/A   Overcast
1:15 PM 53.6 °F - 53.6 °F 100% 29.84 in 10.0 mi SW 9.2 mph - N/A   Overcast
1:35 PM 53.6 °F - 51.8 °F 94% 29.84 in 10.0 mi SW 11.5 mph - N/A   Overcast
1:55 PM 53.6 °F - 51.8 °F 94% 29.84 in 10.0 mi WSW 6.9 mph - N/A   Overcast
2:15 PM 53.6 °F - 51.8 °F 94% 29.84 in 10.0 mi SW 10.4 mph - N/A   Overcast
2:35 PM 55.4 °F - 51.8 °F 88% 29.84 in 10.0 mi SW 13.8 mph - N/A   Overcast
2:55 PM 53.6 °F - 50.0 °F 88% 29.84 in 10.0 mi WSW 10.4 mph - N/A   Overcast
3:15 PM 55.4 °F - 50.0 °F 82% 29.85 in 10.0 mi WSW 11.5 mph - N/A   Overcast
3:35 PM 55.4 °F - 50.0 °F 82% 29.85 in 10.0 mi WSW 12.7 mph - N/A   Overcast
3:55 PM 55.4 °F - 48.2 °F 77% 29.85 in 10.0 mi WSW 15.0 mph 18.4 mph N/A   Overcast
4:15 PM 57.2 °F - 48.2 °F 72% 29.85 in 10.0 mi WSW 9.2 mph - N/A   Overcast
4:35 PM 57.2 °F - 48.2 °F 72% 29.84 in 10.0 mi WSW 13.8 mph - N/A   Mostly Cloudy
4:55 PM 57.2 °F - 46.4 °F 67% 29.85 in 10.0 mi West 10.4 mph - N/A   Overcast
5:15 PM 55.4 °F - 48.2 °F 77% 29.84 in 10.0 mi West 8.1 mph - N/A   Overcast
5:35 PM 57.2 °F - 46.4 °F 67% 29.84 in 10.0 mi West 13.8 mph - N/A   Scattered Clouds
5:55 PM 55.4 °F - 44.6 °F 67% 29.84 in 10.0 mi WSW 12.7 mph 21.9 mph N/A   Scattered Clouds
6:15 PM 55.4 °F - 44.6 °F 67% 29.83 in 10.0 mi WSW 10.4 mph - N/A   Scattered Clouds
6:35 PM 55.4 °F - 44.6 °F 67% 29.82 in 10.0 mi WSW 6.9 mph - N/A   Scattered Clouds
6:55 PM 53.6 °F - 46.4 °F 77% 29.82 in 10.0 mi WSW 5.8 mph - N/A   Clear
7:15 PM 53.6 °F - 46.4 °F 77% 29.83 in 10.0 mi West 5.8 mph - N/A   Clear
7:35 PM 51.8 °F - 44.6 °F 76% 29.84 in 10.0 mi West 4.6 mph - N/A   Clear
7:55 PM 51.8 °F - 44.6 °F 76% 29.84 in 10.0 mi NW 3.5 mph - N/A   Mostly Cloudy
8:15 PM 51.8 °F - 44.6 °F 76% 29.84 in 10.0 mi West 3.5 mph - N/A   Mostly Cloudy
8:35 PM 51.8 °F - 44.6 °F 76% 29.84 in 10.0 mi Calm Calm - N/A   Mostly Cloudy
8:55 PM 51.8 °F - 44.6 °F 76% 29.85 in 10.0 mi West 4.6 mph - N/A   Overcast
9:15 PM 50.0 °F - 44.6 °F 82% 29.85 in 10.0 mi WSW 4.6 mph - N/A   Scattered Clouds
9:35 PM 48.2 °F - 44.6 °F 87% 29.85 in 10.0 mi West 3.5 mph - N/A   Mostly Cloudy
9:55 PM 48.2 °F - 44.6 °F 87% 29.86 in 10.0 mi West 4.6 mph - N/A   Scattered Clouds
10:15 PM 48.2 °F - 44.6 °F 87% 29.86 in 10.0 mi WSW 4.6 mph - N/A   Scattered Clouds
10:35 PM 48.2 °F - 44.6 °F 87% 29.87 in 10.0 mi WSW 3.5 mph - N/A   Overcast
10:55 PM 48.2 °F - 44.6 °F 87% 29.87 in 10.0 mi NW 3.5 mph - N/A   Overcast
11:15 PM 51.8 °F - 46.4 °F 82% 29.87 in 10.0 mi WNW 9.2 mph - N/A   Overcast
11:35 PM 48.2 °F - 44.6 °F 87% 29.87 in 10.0 mi WNW 4.6 mph - N/A   Overcast